This demonstration page uses our WeatherBlox Daily Observations layout. Learn more.

Left ArrowRight Arrow

Hourly Observations for May 20, 2019

Temp ( °F °C ) Dew Point ( °F °C ) Humidity (%) Winds ( mph kmh ) Pressure ( in mb ) Visibility ( mi km ) Precip ( " mm )
12:15 am 00:15 Cloudy 45 7.2 38 3.5 78 78 NNE 13 20 30.08 1019 10 16 N/A
12:35 am 00:35 Cloudy 45 7.3 38 3.3 76 76 NE 15 24 30.09 1019 10 16 N/A
12:55 am 00:55 Cloudy 46 7.5 38 3.4 75 75 NNE 13 20 30.10 1019 10 16 N/A
1:15 am 01:15 Cloudy 45 7.2 38 3.5 78 78 NE 13 20 30.08 1019 10 16 N/A
1:35 am 01:35 Cloudy 45 7.3 38 3.5 77 77 NE 14 22 30.09 1019 10 16 N/A
1:55 am 01:55 Cloudy 45 7.4 38 3.6 77 77 NE 16 26 30.10 1019 10 16 N/A
2:15 am 02:15 Cloudy 45 7.2 38 3.5 78 78 NE 16 26 30.09 1019 10 16 N/A
2:35 am 02:35 Cloudy 45 7.1 38 3.6 79 79 NE 15 24 30.07 1018 10 16 N/A
2:55 am 02:55 Mostly Cloudy 45 7 38 3.6 79 79 NE 12 19 30.08 1019 10 16 N/A
3:15 am 03:15 Partly Cloudy 45 7 39 3.7 80 80 NE 13 20 30.10 1019 10 16 N/A
3:35 am 03:35 Mostly Cloudy 44 6.8 38 3.5 80 80 NE 14 22 30.08 1019 10 16 N/A
3:55 am 03:55 Mostly Cloudy 44 6.8 38 3.5 80 80 ENE 12 19 30.09 1019 10 16 N/A
4:15 am 04:15 Partly Cloudy 44 6.7 39 3.8 82 82 ENE 16 26 30.09 1019 10 16 N/A
4:35 am 04:35 Mostly Cloudy 44 6.7 39 4.1 84 84 ENE 12 19 30.10 1019 10 16 N/A
4:55 am 04:55 Cloudy 44 6.7 39 4.1 84 84 ENE 13 20 30.10 1019 10 16 N/A
5:15 am 05:15 Cloudy 44 6.6 39 4.1 84 84 ENE 15 24 30.10 1019 10 16 N/A
5:35 am 05:35 Cloudy 44 6.5 39 4 84 84 ENE 14 22 30.09 1019 10 16 N/A
5:55 am 05:55 Cloudy 44 6.5 39 4.1 85 85 ENE 17 28 30.09 1019 10 16 N/A
6:15 am 06:15 Cloudy 44 6.5 39 4.1 85 85 E 15 24 30.08 1019 10 16 N/A
6:35 am 06:35 Cloudy 44 6.5 40 4.5 87 87 E 14 22 30.10 1019 10 16 N/A
6:55 am 06:55 Cloudy 44 6.5 40 4.5 87 87 E 15 24 30.10 1019 10 16 N/A
7:15 am 07:15 Cloudy 44 6.5 40 4.3 86 86 E 21 33 30.08 1019 10 16 N/A
7:35 am 07:35 Cloudy 44 6.5 40 4.5 87 87 E 13 20 30.08 1019 10 16 N/A
7:55 am 07:55 Cloudy 44 6.5 40 4.7 88 88 E 15 24 30.08 1019 10 16 N/A
8:15 am 08:15 Cloudy 43 6.3 40 4.4 88 88 E 17 28 30.11 1020 10 16 N/A
8:35 am 08:35 Cloudy with Drizzle 43 6.3 40 4.5 88 88 E 17 28 30.12 1020 10 16 N/A
8:55 am 08:55 Cloudy with Light Rain 43 6 42 5.3 95 95 E 18 30 30.10 1019 5 8 0.01 0.25
9:15 am 09:15 Cloudy with Light Rain 43 6 42 5.4 96 96 E 18 30 30.09 1019 10 16 N/A
9:35 am 09:35 Cloudy with Light Rain 43 6 42 5.6 97 97 E 22 35 30.09 1019 10 16 0.02 0.51
9:55 am 09:55 Cloudy with Light Rain 43 5.9 42 5.6 98 98 E 18 30 30.09 1019 10 16 0.04 1.02
10:15 am 10:15 Cloudy with Light Rain 43 5.9 42 5.6 98 98 E 23 37 30.08 1019 7 11 0.02 0.51
10:35 am 10:35 Cloudy with Light Rain 43 6 42 5.6 97 97 E 21 33 30.08 1019 7 11 0.04 1.02
10:55 am 10:55 Cloudy with Light Rain 43 6 42 5.5 97 97 E 14 22 30.10 1019 10 16 0.04 1.02
11:15 am 11:15 Cloudy with Light Rain 43 6.2 43 6 99 99 E 17 28 30.08 1019 10 16 N/A
11:35 am 11:35 Cloudy with Light Rain 44 6.4 43 6.2 99 99 E 28 44 30.03 1017 10 16 0.01 0.25
11:55 am 11:55 Cloudy with Drizzle 43 6 42 5.6 97 97 E 23 37 30.03 1017 10 16 0.01 0.25
12:15 pm 12:15 Cloudy 43 6.3 43 6.1 99 99 E 20 31 30.05 1017 10 16 N/A
12:35 pm 12:35 Cloudy 44 6.5 43 6.2 98 98 E 22 35 30.04 1017 10 16 N/A
12:55 pm 12:55 Cloudy with Drizzle 44 6.7 43 6.3 97 97 E 17 28 30.03 1017 10 16 N/A
1:15 pm 13:15 Cloudy with Drizzle 44 6.7 43 6.3 97 97 E 17 28 30.04 1017 10 16 N/A
1:35 pm 13:35 Cloudy with Light Rain 44 6.6 43 6 96 96 E 22 35 30.03 1017 10 16 N/A
1:55 pm 13:55 Cloudy with Light Rain 44 6.8 43 6.1 95 95 E 21 33 30.02 1017 10 16 N/A
2:15 pm 14:15 Cloudy 44 6.5 42 5.8 95 95 E 21 33 30.02 1017 10 16 N/A
2:35 pm 14:35 Cloudy with Light Rain 43 6.3 42 5.8 97 97 E 20 31 30.01 1016 10 16 N/A
2:55 pm 14:55 Cloudy 44 6.4 43 6 97 97 E 25 41 29.99 1015 10 16 N/A
3:15 pm 15:15 Cloudy 44 6.5 43 6.1 97 97 E 24 39 29.98 1015 10 16 N/A
3:35 pm 15:35 Cloudy 44 6.5 43 6.1 97 97 E 23 37 29.98 1015 10 16 N/A
3:55 pm 15:55 Cloudy with Drizzle 44 6.5 43 6.2 98 98 E 23 37 29.96 1015 10 16 N/A
4:15 pm 16:15 Cloudy with Light Rain 44 6.8 44 6.7 99 99 E 26 43 29.92 1013 7 11 N/A
4:35 pm 16:35 Cloudy with Mist and Fog 45 7 44 6.9 99 99 E 26 43 29.90 1013 5 8 N/A
4:55 pm 16:55 Cloudy 45 7.1 45 7 99 99 E 29 46 29.89 1012 7 11 N/A
5:15 pm 17:15 Cloudy 45 7.2 45 7.1 99 99 E 21 33 29.90 1012 10 16 N/A
5:35 pm 17:35 Cloudy 45 7.1 45 7 99 99 E 21 33 29.91 1013 10 16 N/A
5:55 pm 17:55 Cloudy 45 7 45 7 100 100 E 23 37 29.91 1013 10 16 N/A
6:15 pm 18:15 Cloudy 44 6.7 44 6.7 100 100 E 15 24 29.92 1013 10 16 N/A
6:35 pm 18:35 Cloudy 44 6.7 44 6.7 100 100 E 15 24 29.89 1012 10 16 N/A
6:55 pm 18:55 Cloudy 44 6.7 44 6.7 100 100 ENE 17 28 29.89 1012 7 11 N/A
7:15 pm 19:15 Cloudy 44 6.7 44 6.7 100 100 ENE 17 28 29.89 1012 7 11 N/A
7:35 pm 19:35 Cloudy with Mist and Fog 44 6.7 44 6.7 100 100 NE 16 26 29.89 1012 5 8 N/A
7:55 pm 19:55 Cloudy with Mist and Fog 44 6.6 44 6.6 100 100 ENE 17 28 29.90 1013 4 6 N/A
8:15 pm 20:15 Cloudy with Mist and Fog 44 6.5 44 6.5 100 100 ENE 17 28 29.90 1013 5 8 N/A
8:35 pm 20:35 Cloudy with Mist and Fog 44 6.5 44 6.5 100 100 ENE 18 30 29.89 1012 5 8 N/A
8:55 pm 20:55 Cloudy with Mist and Fog 44 6.6 44 6.6 100 100 ENE 18 30 29.90 1013 5 8 N/A
9:15 pm 21:15 Cloudy with Drizzle 44 6.5 44 6.5 100 100 ENE 20 31 29.89 1012 5 8 N/A
9:35 pm 21:35 Cloudy with Light Rain 44 6.5 44 6.5 100 100 ENE 16 26 29.89 1012 5 8 N/A
9:55 pm 21:55 Cloudy with Light Rain 44 6.6 44 6.6 100 100 ENE 18 30 29.89 1012 5 8 0.01 0.25
10:15 pm 22:15 Cloudy 44 6.6 44 6.6 100 100 ENE 18 30 29.89 1012 7 11 N/A
10:35 pm 22:35 Cloudy with Light Rain 44 6.6 44 6.6 100 100 ENE 23 37 29.87 1012 7 11 N/A
10:55 pm 22:55 Cloudy 44 6.7 44 6.7 100 100 ENE 17 28 29.86 1011 7 11 0.01 0.25
11:15 pm 23:15 Cloudy with Light Rain 44 6.7 44 6.7 100 100 ENE 20 31 29.87 1012 3 5 N/A
11:35 pm 23:35 Cloudy with Light Rain 44 6.6 44 6.6 100 100 ENE 22 35 29.86 1011 3 5 N/A
11:55 pm 23:55 Cloudy with Light Rain 44 6.5 44 6.5 100 100 ENE 22 35 29.84 1011 4 6 0.01 0.25

Powered by AerisWeather